Погода в Славгороде

Погода в Славгороде : погода сейчас, прогноз погоды и архив. Всё, что Вы хотите узнать о погоде в Славгороде!

Хотите узнать прогноз погоды в Славгороде? Тогда Вам сюда: Погода в Славгороде

Поиск расширенной информации на нашем сайте:

Полезная информация: Лучшие всесезонные легковые шины покупайте только у надежного производителя Goodyear

Другие новости

Новости СМИ2

Главная страница сайта

Новости сайта

02.10.2013

Напоминаем, что на нашем новом сайте вы можете получить высокодетализированные прогнозы погоды по пунктам России, СНГ и мира (включающие важные для авиации метеовеличины, такие как направление и скорость ветра, видимость, явления погоды, количество и форма облачности, нижняя и верхняя граница облачности), а также ознакомиться с разнообразными материалами по авиационной метеорологии и подборкой полезных ссылок на эту тему.

Сайт Метеоцентр.Азия посвящён разработке технологий оптимизации авиаметеорологического обслуживания, включая проектирование и перспективное создание нескольких автоматизированных авиаметеорологических систем:
- система выпуска высокодетальных прогностических карт явлений погоды для нижнего воздушного пространства по России и ближнему зарубежью;
- система верификации прогнозов TAF (выпускаемых синоптиками официальных АМСГ РФ и ближнего зарубежья) и AUTOTAF (выпускаемых сайтом Метеоцентр.Азия) - выявление ошибок, онлайн-сопоставление с фактической погодой METAR, автоматическое внесение коррективов в прогнозы при резком отклонении фактической погоды от прогноза, подсчёт оправдываемости прогнозов по элементам и в целом;
- система обработки, анализа и отображения авиаметеорологической информации для применения провайдерами метеорологической информации.

Рекомендуем: Блок излучения купить аппарат лазерной терапии УзорМед.

Погода в Славгороде - сегодня

Время (UTC), дата Ветер
(°,м/с) 
Видим.   Явления Облачность Т
(°С)
Тd
(°С)
f(%) Тe
(°С)
Pmin
(гПа)
dP
(гПа)
Po
(мм)
O2
(г/м3)
Тmin Tmax R s Состояние
почвы
18 23.02.17 130 (ЮВ) 20000 м    ясно 
-11.6 -14.3 80 -15  1028.7  -1.1  759  321           
21 23.02.17 100 (В) 20000 м    ясно 
-13 -15.3 83 -16  1027.5  -1.3  758  322           
00 24.02.17 110 (В) 20000 м    ясно 
-14.5 -16.9 82 -18  1026.3  -1.3  757  324  -14.5      14  неравномерный
сухой снег
100% 
03 24.02.17 120 (ЮВ) 20000 м    3/0 верхняя 
[Ci sp]
-13.7 -16.3 81 -17  1025.5  -0.8  756  322  -14.8         
06 24.02.17 190 (Ю) 20000 м    ясно 
-10.7 -14.7 72 -15  1024.5  -0.7  756  318           
09 24.02.17 190 (Ю) 20000 м    ясно 
-8.2 -12.1 73 -12  1023.9  -0.5  756  315           
12 24.02.17 180 (Ю) 20000 м    ясно 
-10.7 -13.7 79 -14  1023.7  -0.3  755  318    -8       
15 24.02.17 200 (Ю) 20000 м    1/0 верхняя 
[Ci sp]
-14.1 -16.4 83 -16  1023.9  755  322           
18 24.02.17 150 (ЮВ) 20000 м    ясно 
-14.7 -16.7 85 -17  1023.3  -0.7  755  323           
21 24.02.17 160 (Ю) 20000 м    ясно 
-14.6 -16.6 85 -18  1022.9  -0.3  755  323           
00 25.02.17 140 (ЮВ) 20000 м    ясно 
-14.6 -16.5 85 -18  1022.6  -0.4  754  322  -15.1      14  неравномерный
сухой снег
100% 
03 25.02.17 130 (ЮВ) 20000 м    8/0 средняя, верхняя 
[Ac trans|Ci sp]
-14.2 -16.3 84 -18  1022.5  -0.1  754  322  -15.3         
06 25.02.17 180 (Ю) 20000 м    6/0 верхняя 
[Ci sp]
-9.6 -13.3 74 -14  1022.1  754  316           
09 25.02.17 180 (Ю) 20000 м    4/0 верхняя 
[Ci sp]
-7.3 -11.3 73 -11  1021.8  -0.2  754  313           
12 25.02.17 220 (ЮЗ) 0500 м  туман  ясно 
-6.5 -7.6 92 -8  1022  0.3  754  312    -6.1       
15 25.02.17 210 (ЮЗ) 4000 м  дымка{туман}  ясно 
-9.5 -10.9 90 -11  1022.7  0.5  755  316           
18 25.02.17 200 (Ю) 1000 м  дымка{туман}  ясно 
-10.9 -12.5 88 -11  1023.6  0.8  755  318           
21 25.02.17 190 (Ю) 1000 м  дымка{туман}  ясно 
-10.4 -11.9 89 -10  1024.6  756  318           
00 26.02.17 260 (З) 10 км  дымка{туман}  ясно 
-5 -5.9 93 -6  1025.5  1.3  757  311  -11.5      14  неравномерный
сухой снег
100% 
03 26.02.17 220 (ЮЗ) 1000 м  дымка  10/10 270 м 
[St]
-3.9 -4.8 93 -5  1027.1  1.6  758  310           
06 26.02.17 210 (ЮЗ) 4000 м  дымка  10/10 300 м 
[St]
-3.7 -4.5 94 -6  1028.2  1.1  759  311           
09 26.02.17 190 (Ю) 20000 м    10/10 960 м 
[Sc]
-2.2 -3.2 93 -6  1028.3  0.1  759  309           
12 26.02.17 190 (Ю) 20000 м    10/0 верхняя 
[Ci sp]
-3 -4.4 90 -7  1028.4  0.1  759  310    -1.6       
15 26.02.17 200 (Ю) 20000 м  позёмок  10/6 630 м кучево-дожд., верхняя 
[Cb cap|Ci sp]
-2.8 -4.5 88 -7  1028.2  -0.2  759  310           
18 26.02.17 220 (ЮЗ) 7-11{11}  20000 м  позёмок  10/10 600 м кучево-дожд. 
[Cb cap]
-0.8 -2.9 86 -5  1027.5  0.6  759  307           
Время (UTC), дата Ветер
(°,м/с) 
Видим.   Явления Облачность Т
(°С)
Тd
(°С)
f(%) Тe
(°С)
Pmin
(гПа)
dP
(гПа)
Po
(мм)
O2
(г/м3)
Тmin Tmax R s Состояние
почвы

Для получения пояснительной информации подведите курсор к названию столбца.

ПОГОДА в Славгороде - архив

Всё, что Вы хотите узнать о погоде в Славгороде - удобно и подробно!

Выберите нужную дату (начиная с 1 января 2015* года) и нажмите кнопку "Найти".
Будут отображены архивные сводки погоды по пункту Славгород, начиная с указанной даты.


Отображать данные в формате CSV (для использования в таблицах Excel)


Внимание! Наш архив погоды предназначен исключительно для личного некоммерческого использования в познавательных целях. Если Вам необходимы официальные справки о состоянии погоды (для производственных, юридических, коммерческих и т.п. целей), обращайтесь в органы Росгидромета.

*Примечание: данная дата относится к архиву по метеостанциям СССР (Россия, СНГ, Балтия).
Архив по метеостанциям Зарубежной Европы и Азии (кроме Китая) хранится 10 дней, по другим регионам земного шара (Китай, Африка, Америка, Австралия, Океания) - 1 день.

Славгород - район местоположения метеостанции


Название, широта, долгота, высота метеостанции:
Славгород 53°ш. 78.6°д. 126 м над ур. моря [Российская Федерация]

Дополнительная информация

В oтличие oт бoльшинства пoгoдных сайтoв мы публикуем пoдрoбную метеoинфoрмацию в детальнoм прoфессиoнальнoм фoрмате.

Характеристики температуры и влажнoсти вoздуха измеряются на высoте 2 м в тени вдали oт зданий и деревьев.
Скoрoсть ветра измеряется на высoте 10 м (на урoвне рoста челoвека скoрoсть ветра ниже в 1.5-2 раза). Если метеoстанция нахoдится в гoрoде или в лесу, тo скoрoсть ветра занижена на 2-4 м/с пo сравнению с oткрытым местoм. Скoрoсть ветра над акватoриями крупных рек и oзёр, а также на вершинах хoлмoв на 2-5 м/с выше, чем в oбычных услoвиях.
Атмoсфернoе давление в разных тoчках местнoсти мoжет значительнo oтличаться oт давления на метеoстанции, в зависимoсти oт услoвий рельефа (при пoдъёме на 10 м давление пoнижается примернo на 1 мм рт.ст.).